Location: Poznań
(52.4062°N, 16.9234°E)
Time: 14:50:06
(UTC+01:00)

ISS - Pass Details

Date: 30 January 2019
Orbit: 403 x 411 km, 51.6° (Epoch: 23 February)

Event Time Altitude Azimuth Distance (km) Brightness Sun altitude
Rises 18:59:44 0° 270° (W) 2,338 1.6 -22.1°
Reaches altitude 10° 19:01:49 10° 269° (W) 1,478 0.2 -22.4°
Enters shadow 19:04:21 49° 260° (W) 537 -2.9 -22.8°
